Regional Weather Roundup
Issued by NWS Wakefield, VA

Home | Current Version | Previous Version | Graphics & Text | Print | Product List | Glossary On
Versions: 1 2 3 4 5 6 7 8 9 10 11 12 13 14 15 16 17 18 19 20 21 22 23 24 25 26 27
000
ASUS41 KAKQ 271615
RWRAKQ

REGIONAL WEATHER ROUNDUP
NATIONAL WEATHER SERVICE WAKEFIELD VA
1200 PM EDT FRI MAY 27 2016

Note: "fair" indicates few or no clouds below 12,000 feet with no
significant weather and/or obstructions to visibility. * = Denotes
station may not report precipitation (e.g., rain,snow,etc.),
thunder or fog.

VAZ042-051-052>054-056-271700-
NORTHERN VIRGINIA

CITY           SKY/WX    TMP DP  RH WIND       PRES   REMARKS
WASH NATIONAL  PTSUNNY   83  69  62 S9        30.08F
DULLES         FAIR      84  64  50 VRB3      30.08F
FORT BELVOIR   FAIR      83  69  61 SE6       30.08F
QUANTICO       FAIR      79  71  76 S6        30.10S
FREDERICKSBRG* FAIR      85  69  58 W5        30.08F
STAFFORD*      FAIR      83  67  58 SE3       30.13S
WARRENTON      FAIR      86  62  44 E3        30.09S
CULPEPER*      FAIR      86  70  58 CALM      30.09F
MANASSAS*      SUNNY     84  66  54 CALM      30.09S
LEESBURG*      FAIR      86  68  54 NW8       30.09S
WINCHESTER     FAIR      82  64  54 SE6       30.09S
FRONT ROYAL*   FAIR      84  63  48 CALM      30.08F
LURAY*         FAIR      82  63  51 SW5       30.10F
$$

VAZ048-049-060>072-079>083-271700-
CENTRAL AND SOUTH CENTRAL VIRGINIA

CITY           SKY/WX    TMP DP  RH WIND       PRES   REMARKS
RICHMOND       FAIR      82  66  58 S10       30.11F
CHESTERFIELD*  FAIR      82  63  51 S7        30.13S
PETERSBURG*    FAIR      84  66  55 S6        30.13S
HANOVER        FAIR      83  66  56 VRB6      30.12S
TAPPAHANNOCK*  FAIR      85  65  52 SW7       30.12R
QUINTON*       FAIR      81  67  61 S5        30.11F
CHARLOTTSVILLE FAIR      83  69  62 S3        30.10S
GORDONSVILLE*  FAIR      82  69  64 S5        30.09F
ORANGE*        FAIR      86  66  51 CALM      30.11S
LOUISA*        FAIR      86  73  66 S5        30.09F
BUMPASS*       FAIR      82  70  65 CALM      30.10F
FARMVILLE*     FAIR      84  68  59 S7        30.10S
CREWE*         FAIR      82  69  63 S3        30.12S
FORT PICKETT*  NOT AVBL
CHASE CITY*    FAIR      80  63  55 S6        30.14S
CLARKSVILLE*   FAIR      81  64  57 S3        30.13S
SOUTH HILL*    FAIR      80  65  59 S6        30.19F
LAWRENCEVILLE* FAIR      81  65  58 S7        30.14S
EMPORIA*       FAIR      81  63  54 S7        30.16S
$$

VAZ088>098-271700-
SOUTHEAST VIRGINIA

CITY           SKY/WX    TMP DP  RH WIND       PRES   REMARKS
NORFOLK        FAIR      83  61  47 S13       30.15S
VIRGINIA BEACH FAIR      86  62  44 SW9       30.15S
NORFOLK NAVAL  FAIR      84  62  47 SW9G17    30.16R
WEST POINT*    FAIR      82  66  58 S8        30.13S
SALUDA*        FAIR      82  69  63 S6        30.11S
NEWPORT NEWS   FAIR      81  64  56 SW13      30.14S
LANGLEY AFB    NOT AVBL
FORT EUSTIS    FAIR      82  69  64 S9        30.12S
WILLIAMSBURG*  FAIR      86  66  51 S9        30.14S
HR EXEC AP*    FAIR      84  64  51 SW9       30.17S
FRANKLIN*      FAIR      82  64  54 S7        30.15S
US460-WAKEFLD  FAIR      83  62  49 SW7       30.14S
$$

VAZ020-022-025-037-045-271700-
WEST CENTRAL AND SOUTHWEST VIRGINIA

CITY           SKY/WX    TMP DP  RH WIND       PRES   REMARKS
STAUNTON*      FAIR      82  63  52 CALM      30.14S
WAYNESBORO*    FAIR      80  64  56 W5        30.14S
HOT SPRINGS VA FAIR      73  61  68 SE5       30.24S
LYNCHBURG      FAIR      81  66  60 SW7       30.14S
DANVILLE       FAIR      80  66  62 S6        30.13S
SOUTH BOSTON*  FAIR      81  67  62 S6        30.13S
MARTINSVILLE   FAIR      79  66  65 W7        30.15F
ROANOKE        FAIR      84  61  45 VRB3      30.14F
BLACKSBURG     PTSUNNY   79  63  58 CALM      30.21S
DUBLIN*        PTSUNNY   82  62  50 CALM      30.19S
MARION*        FAIR      82  62  50 W6        30.21F
HILLSVILLE*    PTSUNNY   77  60  56 CALM      30.19F
RICHLANDS*     FAIR      78  68  72 NW5       30.19F
WISE*          PTSUNNY   77  55  47 CALM      30.21R
ABINGDON*      PTSUNNY   81  61  50 CALM      30.17S
$$

MDZ021>025-VAZ099-100-271700-
SOUTHERN MARYLAND AND THE DELMARVA PENINSULA

CITY           SKY/WX    TMP DP  RH WIND       PRES   REMARKS
PATUXENT RIVER MOSUNNY   78  67  68 SE9       30.10R
BAY BRIDGE APT SUNNY     81  68  65 S12       30.08F
LEONARDTOWN    SUNNY     81  66  61 W7        30.12R
DOVER          SUNNY     85  72  64 S12       30.07S
GEORGETOWN     SUNNY     84  66  54 SW12      30.10S
EASTON         SUNNY     82  73  74 SW8       30.13S
CAMBRIDGE      SUNNY     81  68  65 SE6       30.10R
SALISBURY      SUNNY     83  66  56 SW9       30.10F
OCEAN CITY     SUNNY     72  64  76 S10       30.12S
WALLOPS ISLAND FAIR      78  67  68 S16       30.13S
ACCOMACK*      FAIR      82  59  44 SW13      30.13F
$$

NCZ012>017-030>032-271700-
NORTH CENTRAL AND EASTERN NORTH CAROLINA

CITY           SKY/WX    TMP DP  RH WIND       PRES   REMARKS
ROANOKE RAPIDS FAIR      81  63  54 SW9       30.15F
RALEIGH        MOSUNNY   82  62  50 SW8G16    30.16S
ELIZABETH CITY PTSUNNY   80  61  52 SW9       30.18R
AHOSKIE*       SUNNY     81  63  54 S5        30.16S
EDENTON*       MOSUNNY   81  66  59 S3        30.18R
CURRITUCK*     MOSUNNY   83  59  44 S6        30.18S
KILL DEVIL HLS SUNNY     84  56  38 SE6       30.17S
MANTEO         NOT AVBL
CAPE HATTERAS  SUNNY     82  60  47 SE5       30.19S
TARBORO*       FAIR      83  64  53 S6        30.17S
GOLDSBORO      SUNNY     83  62  48 VRB5      30.15S
WASHINGTON     SUNNY     82  62  51 SE7       30.17S
GREENVILLE     MOSUNNY   82  63  51 SW6       30.18R
NEW BERN       SUNNY     81  61  50 E8        30.18F
WILMINGTON     SUNNY     79  59  50 VRB7      30.17S
$$

VAZ048-271700-
ELSEWHERE

CITY           SKY/WX    TMP DP  RH WIND       PRES   REMARKS
HARRISBURG PA  PTSUNNY   83  65  54 NW3       30.05F
BALTIMORE      PTSUNNY   87  66  49 W7        30.06F
ANNAPOLIS      SUNNY     73  68  84 E14       30.07F
ANDREWS AFB    FAIR      84  68  58 VRB5      30.08F
PHILADELPHIA   MOSUNNY   83  66  56 SW8       30.07S
HENDERSON NC   SUNNY     78  60  53 SW8       30.15S
GREENSBORO     MOSUNNY   81  63  54 SW8       30.14F
ROCKY MOUNT    SUNNY     83  64  52 VRB5      30.16S
$$

VAZ100-271700-
MARINE

STATION/POSITION TIME  TEMP    WIND        PRES    WAVE   SWELL
                       AIR SEA DIR/SP/G            HT/PER HT/PER
                 (UTC) (F)     (DEG/KT/KT) (MB)    (FT/S) (FT/S)
BRANDYWINE LGT   1500   72     190/  7/  8 1019.1R
CAPE MAY NJ      1500   72 67  140/  8/  9 1019.0R
LEWES DE         1500   82 60  240/ 10/ 13 1019.0R
15NM E FENWICK I 1550   64 60              1019.9R   3/ 5
OCEAN-CITY-INLET 1500   63 61  200/ 13/ 18 1020.3R
WACHAPREAGUE VA  1500   77 74  210/ 13/ 16 1020.0S
THOMAS POINT MD  1600   71 67  160/ 12/ 13 1019.9F
GOOSES REEF MD   1600   71     160/  8/  8 1020.0S
COVE POINT MD    1500   70     170/ 10/ 11 1019.5F
SOLOMONS ISLAND  1500   77 64  180/  4/  4   N/A
BISHOPS HEAD MD  1500   72 72  160/  7/  9 1019.8R
PINEY POINT MD   1500          140/  8/  8   N/A
POTOMAC MD       1600   72 72  110/  6/  6 1018.4S   1
CAMBRIDGE MD     1500   80 65  140/  4/  8 1018.2F
LEWISETTA VA     1500   79 67  190/  5/  6 1018.8F
RAPPAHANNOCK LGT 1500          180/ 13/ 13 1021.1R
STINGRAY PT      1600   74 71  180/  8/ 10 1020.4F   1/ 3
YORK RVR RNG VA  1500   76     230/  9/ 10 1019.9F
YORKTOWN VA      1500   78 68  220/  9/ 12 1020.0F
JAMESTOWN VA     1600   79 72  190/  6/  8   N/A     0
DOMINION TERM VA 1500   75     230/ 10/ 11 1020.7F
KIPTOPEKE VA     1500      69  190/  5/  6   N/A
CHES BAY BRIDGE  1500   76 68  200/ 10/ 11 1020.7R
CAPE HENRY VA    1500   80     190/  7/ 11   N/A
CHESAPEAKE LGHT  1500   69     180/ 17/ 17 1021.7R
WILLOUBY STN VA  1500   76     230/ 10/ 11 1021.6S
CAPE HENRY BUOY  1512      67                N/A     2/ 7
1ST LANDING BUOY 1600   75 69  200/  8/  8 1020.8F   1/ 3
CAPE CHARLES BUO 1526      66                N/A     2/ 8   2/ 8
OFFSHORE WE BUOY 1521      66                N/A     2/ 8   2/ 8
64NM E OF VA BCH 1550   65 61  180/  4/  4 1022.3R   2/ 8   2/ 8
DUCK PIER NC     1500   71 61  160/  7/  8 1021.3R
44100 DUCK FRF   1524      67                N/A     2/ 7
44056 DUCK FRF   1511      64                N/A     1/ 7
OREGON INLET NC  1500   76 74  180/  9/ 10 1022.1R
HATTERAS NC      1500   76 72  160/  5/  7 1021.9R
DIAMOND SHLS NC  1550   78 82  110/  8/ 10 1022.3S   2/ 8   2/ 8
CAPE LOOKOUT NC1F1C2F2C3F3C4F4C5F5C6F6C7F7C8M1C9!



USA.gov is the U.S. government's official web portal to all federal, state and local government web resources and services.